METAR Formatted Surface Weather Observation
Issued by NWS

Home | Current Version | Previous Version | Text Only | Print | Product List | Glossary On
Versions: 1 2 3 4 5 6 7 8 9 10 11 12 13 14 15 16 17 18 19 20 21 22 23 24 25 26 27 28 29 30 31 32 33 34 35 36 37 38 39 40 41 42 43 44
491
SAUS42 KTAE 302125
MTR1J0
SPECI K1J0 302117Z AUTO VRB04KT 1 1/2SM TSRA BR OVC041 24/23 A3005
RMK AO2 RAB15 P0006 T02440228 $



USA.gov is the U.S. government's official web portal to all federal, state and local government web resources and services.